Location: Corcelles
(46.1547°N, 4.7234°E)
Time: 03:38:13
(UTC+00:00)

Cosmos 921 Rocket - Visible Passes

Search period start: 23 October 2020 00:00
Search period end: 02 November 2020 00:00
Orbit: 572 x 632 km, 75.8° (Epoch: 22 October)

Date Brightness Start Highest point End Pass type
(mag) Time Alt. Az. Time Alt. Az. Time Alt. Az.
28 Oct 6.0 04:54:33 10° NNE 04:56:23 12° NE 04:58:14 10° ENE visible
29 Oct 5.8 05:05:28 10° NNE 05:08:40 19° ENE 05:11:51 10° ESE visible
30 Oct 5.1 05:16:55 10° N 05:20:51 28° ENE 05:24:45 10° ESE visible
31 Oct 4.3 05:28:35 10° N 05:32:57 45° ENE 05:37:16 10° SE visible
01 Nov 6.2 04:04:44 10° NE 04:05:50 11° NE 04:06:56 10° ENE visible
01 Nov 3.4 05:40:25 10° NNW 05:44:57 75° ENE 05:49:28 10° SSE visible
